Погода в Пушкарях

Россия / Рязанская область     54°16′32″N   39°05′16″E
темп.,
°C
ветер,
м/с
пор.,
м/с
влажн.,
%
обл.,
%
осадки,
мм/ч
давл.,
гПа
погр.,
м
6 марта, сб
сб600:00−10зсз228732 0.0 101521
03:00−11з228817 0.0 101621
06:00−12зсз228931 0.0 101621
09:00−10сз239246 0.0 101783
12:00−7сз248841 0.0 1017278
15:00−5зсз248653 0.0 1016556
18:00−8з348945 0.0 101652
21:00−11з478926 0.0 1016106
7 марта, вс
вс700:00−12зюз44900 0.0 101576
03:00−12юз510900 0.0 1013186
06:00−10юз7148748 0.0 1010346
09:00−7юз10189175 0.1 1006682
12:00−5юз111892100 0.3 10001079
15:00−3юз111893100 1.4 9971287
18:00−6зсз51373100 1.3 997565
21:00−9зюз6137867 1.3 1000258
8 марта, пн
пн800:00−10юз613760 0.0 999258
03:00−8юз7158035 0.0 998385
06:00−6юз71394100 0.3 995731
09:00−8з101693100 2.1 995812
12:00−7сз91479100 0.6 9981121
15:00−6зсз8137793 0.7 10021302
18:00−8зсз7138796 0.1 1004717
21:00−8зсз5119296 0.3 1007512
9 марта, вт
вт900:00−11зсз599384 0.0 1009252
03:00−14зсз479657 0.1 1011109
06:00−15сз379682 0.0 1013155
09:00−14ссз599283 0.1 1015450
12:00−13сз578891 0.0 1016519
15:00−12сз478695 0.1 1017681
18:00−14зсз3393100 0.1 101845
21:00−15зсз3395100 0.1 102046
10 марта, ср
ср1000:00−15з239296 0.0 102040
03:00−16ю129588 0.0 101921
06:00−14юв3496100 0.7 1018173
09:00−14в4595100 1.6 1018227
12:00−13св5793100 0.8 1019407
15:00−14ссв4691100 0.8 1020402
18:00−18с349336 0.0 102231
21:00−21ссв349825 0.0 102549